Météo par heure à La Massana

Ce jour, 29 Septembre, Mardi

Heure Température Précipitation Vent Pression Humidité
00:00 +5°C° 0 mm 1 m/s 611 mmHg 79%
01:00 +5°C° 0 mm 1 m/s 611 mmHg 77%
02:00 +5°C° 0 mm 1 m/s 611 mmHg 75%
03:00 +5°C° 0 mm 1 m/s 610 mmHg 73%
04:00 +5°C° 0 mm 1 m/s 610 mmHg 70%
05:00 +5°C° 0 mm 1 m/s 611 mmHg 68%
06:00 +5°C° 0 mm 1 m/s 611 mmHg 67%
07:00 +7°C° 0 mm 1 m/s 612 mmHg 64%
08:00 +9°C° 0 mm 1 m/s 613 mmHg 61%
09:00 +11°C° 0 mm 0 m/s 614 mmHg 58%
10:00 +13°C° 0 mm 1 m/s 614 mmHg 54%
11:00 +14°C° 0 mm 1 m/s 615 mmHg 51%
12:00 +16°C° 0 mm 1 m/s 615 mmHg 47%
13:00 +15°C° 0 mm 1 m/s 615 mmHg 49%
14:00 +15°C° 0 mm 1 m/s 614 mmHg 51%
15:00 +15°C° 0 mm 1 m/s 613 mmHg 54%
16:00 +12°C° 0 mm 1 m/s 612 mmHg 63%
17:00 +10°C° 0 mm 1 m/s 611 mmHg 72%
18:00 +7°C° 0 mm 0 m/s 611 mmHg 81%
19:00 +7°C° 0 mm 1 m/s 611 mmHg 80%
20:00 +7°C° 0 mm 1 m/s 611 mmHg 80%
21:00 +7°C° 0 mm 1 m/s 611 mmHg 79%
22:00 +7°C° 0 mm 1 m/s 610 mmHg 77%
23:00 +7°C° 0 mm 1 m/s 610 mmHg 76%

Demain, 30 Septembre, Mercredi

Heure Température Précipitation Vent Pression Humidité
00:00 +6°C° 0 mm 1 m/s 610 mmHg 74%
01:00 +6°C° 0 mm 1 m/s 610 mmHg 72%
02:00 +6°C° 0 mm 1 m/s 609 mmHg 70%
03:00 +6°C° 0 mm 1 m/s 609 mmHg 69%
04:00 +6°C° 0 mm 1 m/s 609 mmHg 69%
05:00 +6°C° 0 mm 1 m/s 609 mmHg 69%
06:00 +6°C° 0 mm 1 m/s 609 mmHg 70%
07:00 +9°C° 0 mm 1 m/s 610 mmHg 63%
08:00 +12°C° 0 mm 1 m/s 612 mmHg 57%
09:00 +14°C° 0 mm 1 m/s 613 mmHg 50%
10:00 +15°C° 0 mm 1 m/s 613 mmHg 47%
11:00 +16°C° 0 mm 1 m/s 613 mmHg 44%
12:00 +17°C° 0 mm 2 m/s 613 mmHg 41%
13:00 +17°C° 0 mm 2 m/s 612 mmHg 42%
14:00 +16°C° 0 mm 2 m/s 612 mmHg 43%
15:00 +16°C° 0 mm 2 m/s 611 mmHg 43%
16:00 +13°C° 0 mm 1 m/s 610 mmHg 54%
17:00 +11°C° 0 mm 1 m/s 609 mmHg 64%
18:00 +7°C° 0 mm 0 m/s 608 mmHg 74%
19:00 +7°C° 0 mm 0 m/s 608 mmHg 74%
20:00 +7°C° 0 mm 1 m/s 608 mmHg 73%
21:00 +7°C° 0 mm 1 m/s 608 mmHg 73%
22:00 +7°C° 0 mm 1 m/s 608 mmHg 71%
23:00 +6°C° 0 mm 1 m/s 607 mmHg 70%

Après-demain, 1 Octobre, Jeudi

Heure Température Précipitation Vent Pression Humidité
00:00 +6°C° 0 mm 1 m/s 607 mmHg 68%
01:00 +6°C° 0 mm 1 m/s 607 mmHg 68%
02:00 +6°C° 0 mm 1 m/s 606 mmHg 68%
03:00 +6°C° 0 mm 1 m/s 606 mmHg 67%
04:00 +6°C° 0 mm 1 m/s 606 mmHg 68%
05:00 +6°C° 0 mm 1 m/s 605 mmHg 68%
06:00 +5°C° 0 mm 1 m/s 605 mmHg 68%
07:00 +8°C° 0 mm 1 m/s 606 mmHg 63%
08:00 +10°C° 0 mm 1 m/s 607 mmHg 58%
09:00 +12°C° 0 mm 1 m/s 608 mmHg 54%
10:00 +13°C° 0 mm 2 m/s 608 mmHg 54%
11:00 +13°C° 0 mm 2 m/s 608 mmHg 54%
12:00 +13°C° 0 mm 3 m/s 608 mmHg 53%
13:00 +12°C° 0 mm 3 m/s 607 mmHg 58%
14:00 +12°C° 0 mm 3 m/s 607 mmHg 63%
15:00 +11°C° 0 mm 3 m/s 606 mmHg 68%
16:00 +10°C° 0.1 mm 2 m/s 606 mmHg 75%
17:00 +8°C° 0.1 mm 2 m/s 605 mmHg 82%
18:00 +8°C° 0.1 mm 1 m/s 604 mmHg 88%
19:00 +7°C° 0 mm 1 m/s 604 mmHg 89%
20:00 +7°C° 0 mm 1 m/s 604 mmHg 90%
21:00 +6°C° 0 mm 1 m/s 603 mmHg 90%
22:00 +5°C° 0 mm 2 m/s 602 mmHg 89%
23:00 +5°C° 0 mm 2 m/s 602 mmHg 88%

2 Octobre, Vendredi

Heure Température Précipitation Vent Pression Humidité
00:00 +5°C° 0 mm 3 m/s 601 mmHg 87%
01:00 +5°C° 0 mm 3 m/s 600 mmHg 87%
02:00 +5°C° 0 mm 3 m/s 599 mmHg 88%
03:00 +5°C° 0 mm 4 m/s 598 mmHg 89%
04:00 +5°C° 0.1 mm 4 m/s 597 mmHg 90%
05:00 +5°C° 0.1 mm 3 m/s 597 mmHg 91%
06:00 +4°C° 0.1 mm 3 m/s 596 mmHg 91%
07:00 +5°C° 0.9 mm 3 m/s 595 mmHg 91%
08:00 +5°C° 0.9 mm 4 m/s 595 mmHg 91%
09:00 +5°C° 0.9 mm 4 m/s 595 mmHg 91%
10:00 +4°C° 1.8 mm 4 m/s 595 mmHg 93%
11:00 +3°C° 1.8 mm 3 m/s 594 mmHg 96%
12:00 +3°C° 1.8 mm 3 m/s 594 mmHg 98%
13:00 +2°C° 1.5 mm 3 m/s 594 mmHg 96%
14:00 +2°C° 1.5 mm 2 m/s 594 mmHg 94%
15:00 +2°C° 1.5 mm 2 m/s 594 mmHg 92%
16:00 +1°C° 0.9 mm 2 m/s 594 mmHg 92%
17:00 +1°C° 0.9 mm 1 m/s 594 mmHg 93%
18:00 +1°C° 0.9 mm 1 m/s 594 mmHg 94%
19:00 0°C° 0.5 mm 1 m/s 595 mmHg 94%
20:00 0°C° 0.5 mm 1 m/s 595 mmHg 94%
21:00 -1°C° 0.5 mm 1 m/s 595 mmHg 94%
22:00 -2°C° 0 mm 1 m/s 595 mmHg 93%
23:00 -2°C° 0 mm 1 m/s 595 mmHg 92%

3 Octobre, Samedi

Heure Température Précipitation Vent Pression Humidité
00:00 -5°C° 0 mm 2 m/s 595 mmHg 92%
01:00 -5°C° 0 mm 2 m/s 595 mmHg 91%
02:00 -5°C° 0 mm 2 m/s 595 mmHg 91%
03:00 -5°C° 0 mm 2 m/s 594 mmHg 90%
04:00 -5°C° 0 mm 2 m/s 594 mmHg 90%
05:00 -5°C° 0 mm 2 m/s 594 mmHg 91%
06:00 -5°C° 0 mm 2 m/s 594 mmHg 91%
07:00 -4°C° 0 mm 2 m/s 595 mmHg 90%
08:00 -2°C° 0 mm 3 m/s 595 mmHg 89%
09:00 -1°C° 0 mm 3 m/s 595 mmHg 87%
10:00 -2°C° 0.3 mm 4 m/s 595 mmHg 90%
11:00 -2°C° 0.3 mm 4 m/s 596 mmHg 92%
12:00 -2°C° 0.3 mm 5 m/s 596 mmHg 94%
13:00 -2°C° 1 mm 4 m/s 596 mmHg 95%
14:00 -2°C° 1 mm 4 m/s 596 mmHg 95%
15:00 -2°C° 1 mm 4 m/s 596 mmHg 96%
16:00 -1°C° 0.5 mm 3 m/s 596 mmHg 96%
17:00 -1°C° 0.5 mm 3 m/s 597 mmHg 96%
18:00 +1°C° 0.5 mm 2 m/s 598 mmHg 97%
19:00 -1°C° 0 mm 2 m/s 598 mmHg 95%
20:00 +1°C° 0 mm 1 m/s 598 mmHg 94%
21:00 0°C° 0 mm 1 m/s 599 mmHg 93%
22:00 0°C° 0 mm 1 m/s 599 mmHg 93%
23:00 0°C° 0 mm 1 m/s 599 mmHg 93%

4 Octobre, Dimanche

Heure Température Précipitation Vent Pression Humidité
00:00 -1°C° 0 mm 1 m/s 599 mmHg 93%
01:00 0°C° 0 mm 1 m/s 599 mmHg 94%
02:00 -2°C° 0 mm 2 m/s 599 mmHg 95%
03:00 -2°C° 0 mm 2 m/s 598 mmHg 96%
04:00 -3°C° 0 mm 2 m/s 598 mmHg 95%
05:00 -4°C° 0 mm 3 m/s 598 mmHg 94%
06:00 -4°C° 0 mm 3 m/s 598 mmHg 93%
07:00 -2°C° 0.1 mm 3 m/s 598 mmHg 91%
08:00 -1°C° 0.1 mm 2 m/s 598 mmHg 89%
09:00 +1°C° 0.1 mm 2 m/s 599 mmHg 87%
10:00 +2°C° 0.1 mm 2 m/s 599 mmHg 87%
11:00 +3°C° 0.1 mm 2 m/s 600 mmHg 88%
12:00 +4°C° 0.1 mm 1 m/s 600 mmHg 89%
13:00 +4°C° 0.5 mm 1 m/s 600 mmHg 89%
14:00 +4°C° 0.5 mm 1 m/s 600 mmHg 89%
15:00 +4°C° 0.5 mm 1 m/s 600 mmHg 89%
16:00 +3°C° 0.4 mm 1 m/s 600 mmHg 92%
17:00 +2°C° 0.4 mm 1 m/s 600 mmHg 94%
18:00 +1°C° 0.4 mm 1 m/s 600 mmHg 96%
19:00 +1°C° 0 mm 1 m/s 600 mmHg 95%
20:00 0°C° 0 mm 1 m/s 600 mmHg 94%
21:00 0°C° 0 mm 1 m/s 600 mmHg 93%
22:00 -1°C° 0 mm 1 m/s 600 mmHg 90%
23:00 -1°C° 0 mm 1 m/s 600 mmHg 88%
Voir plus

We Need Your Consent

Meteoprog and our Service Providers may store and access personal data such as cookies, device identifiers or other similar technologies on your device and process such data to personalise content and ads, as well as provide social media features and to analyse the traffic.

  • Store and/or access information on your device

    Cookies, device identifiers or other information can be stored or accessed on your device for the purposes indicated above.

  • Personalised ads and content, ad and content measurement, audience insights, and products development

    Ads and content can be personalised based on a profile. More data can be added to better personalise ads and content. Ad and content performance can be measured. Insights about the audience who saw the ads and content can be derived. Such data can be used to develop or improve user’s experience, systems and software.

By clicking ‘I Agree’ you will allow the use of indicated cookies, device identifiers, web beacons or other similar technologies. Your settings can be changed in the browser on your device.

For certain purposes, legitimate interests may be relied on, rather than consent. You can read more about this in our Privacy and Cookie Policy.